Location: ???????
(55.7027°N, 37.3832°E)
Time: 09:08:20
(UTC+00:00)

Cosmos 2297 - Pass Details

Date: 14 April 2026
Orbit: 833 x 859 km, 71.0° (Epoch: 9 May)

Event Time Altitude Azimuth Distance (km) Brightness Sun altitude
Rises 18:21:31 0° 324° (NW) 3,443 8.6 -13.8°
Reaches altitude 10° 18:24:07 10° 331° (NNW) 2,506 7.4 -14.1°
Maximum altitude 18:29:38 45° 43° (NE) 1,169 4.4 -14.7°
Enters shadow 18:33:28 19° 108° (ESE) 1,937 5.1 -15.0°
